Time-03,TemperatureF,Dew PointF,Humidity,Sea Level PressureIn,VisibilityMPH,Wind Direction,Wind SpeedMPH,Gust SpeedMPH,PrecipitationIn,Events,Conditions,WindDirDegrees,DateUTC
12:00 AM,82.4,62.6,51,29.95,-9999.0,East,6.9,-,N/A,,Clear,100,2013-03-05 03:00:00
1:00 AM,80.6,48.2,32,29.95,-9999.0,East,11.5,-,N/A,,Clear,100,2013-03-05 04:00:00
2:00 AM,78.8,64.4,61,29.92,-9999.0,SSE,5.8,-,N/A,,Clear,150,2013-03-05 05:00:00
3:00 AM,78.8,59.0,51,29.92,-9999.0,SE,8.1,-,N/A,,Clear,130,2013-03-05 06:00:00
4:00 AM,77.0,68.0,74,29.95,6.2,SE,8.1,-,N/A,,Scattered Clouds,140,2013-03-05 07:00:00
5:00 AM,78.8,68.0,69,29.95,6.2,SE,8.1,-,N/A,,Scattered Clouds,140,2013-03-05 08:00:00
6:00 AM,78.8,68.0,69,29.95,6.2,SE,4.6,-,N/A,,Mostly Cloudy,130,2013-03-05 09:00:00
7:00 AM,77.0,69.8,78,29.98,6.2,ESE,11.5,-,N/A,,Mostly Cloudy,110,2013-03-05 10:00:00
8:00 AM,80.6,68.0,65,30.01,6.2,SE,11.5,-,N/A,,Mostly Cloudy,130,2013-03-05 11:00:00
9:00 AM,84.2,68.0,58,30.01,6.2,SSE,10.4,-,N/A,,Mostly Cloudy,150,2013-03-05 12:00:00
10:00 AM,87.8,68.0,52,30.01,6.2,SE,11.5,-,N/A,,Scattered Clouds,130,2013-03-05 13:00:00
11:00 AM,91.4,66.2,43,29.98,6.2,ESE,11.5,-,N/A,,Scattered Clouds,110,2013-03-05 14:00:00
12:00 PM,95.0,64.4,36,29.95,6.2,ESE,15.0,-,N/A,,Scattered Clouds,120,2013-03-05 15:00:00
1:00 PM,96.8,60.8,30,29.89,6.2,SE,9.2,-,N/A,,Scattered Clouds,140,2013-03-05 16:00:00
2:00 PM,98.6,55.4,24,29.86,6.2,SE,11.5,-,N/A,,Scattered Clouds,130,2013-03-05 17:00:00
3:00 PM,100.4,55.4,22,29.83,6.2,SE,10.4,-,N/A,,Scattered Clouds,130,2013-03-05 18:00:00
4:00 PM,100.4,51.8,20,29.80,6.2,East,12.7,-,N/A,,Scattered Clouds,100,2013-03-05 19:00:00
5:00 PM,98.6,55.4,24,29.80,6.2,ENE,13.8,-,N/A,,Partly Cloudy,70,2013-03-05 20:00:00
6:00 PM,93.2,59.0,32,29.83,6.2,SE,11.5,-,N/A,,Partly Cloudy,130,2013-03-05 21:00:00
7:00 PM,91.4,59.0,34,29.86,6.2,SE,10.4,-,N/A,,Partly Cloudy,140,2013-03-05 22:00:00
8:00 PM,89.6,59.0,36,29.86,6.2,SSE,5.8,-,N/A,,Partly Cloudy,150,2013-03-05 23:00:00
9:00 PM,89.6,60.8,38,29.89,-9999.0,SSE,9.2,-,N/A,,Clear,150,2013-03-06 00:00:00
10:00 PM,87.8,60.8,40,29.92,-9999.0,SSE,10.4,-,N/A,,Clear,150,2013-03-06 01:00:00
11:00 PM,86.0,62.6,45,29.92,-9999.0,ESE,8.1,-,N/A,,Clear,120,2013-03-06 02:00:00